Regional Weather Roundup
Issued by NWS Albany, NY

Home | Current Version | Previous Version | Text Only | Print | Product List | Glossary On
Versions: 1 2 3 4 5 6 7 8 9 10 11 12 13 14 15 16 17 18 19 20 21 22 23 24 25 26 27 28 29 30 31 32 33 34 35 36 37 38 39 40 41 42 43 44 45 46 47 48 49 50
000
ASUS41 KALY 102210
RWRALY

NEW YORK STATE HOURLY WEATHER ROUNDUP
NATIONAL WEATHER SERVICE ALBANY NY
600 PM EDT THU JUL 10 2014

NOTE: "FAIR" INDICATES FEW OR NO CLOUDS BELOW 12,000 FEET WITH NO
SIGNIFICANT WEATHER AND/OR NO OBSTRUCTIONS TO VISIBILITY.

NYZ032-033-038>043-046>054-057>066-NYZ062>081-102300-
EAST


CITY           SKY/WX    TMP DP  RH WIND       PRES   REMARKS
ALBANY         PTSUNNY   78  50  37 NW8       30.11F
GLENS FALLS    SUNNY     76  55  48 S6        30.09S
POUGHKEEPSIE   MOSUNNY   81  57  43 CALM      30.08F
NEWBURGH       MOSUNNY   79  61  53 E6        30.11F
MONTGOMERY     MOSUNNY   81  61  50 NW3       30.09F
WHITE PLAINS   MOSUNNY   78  60  53 S6        30.09S
ISLIP          PTSUNNY   80  62  54 SE9       30.08R
NEW YORK CITY  MOSUNNY   81  59  47 NE8       30.08S
CENTRAL PARK   SUNNY     79  61  53 CALM      30.11S
$$

NYZ005>009-017-018-044>046-055-056-102300-
CENTRAL


CITY           SKY/WX    TMP DP  RH WIND       PRES   REMARKS
FULTON         SUNNY     71  47  42 N6        30.17F
SYRACUSE       MOSUNNY   74  46  36 NW8       30.16S
ROME           SUNNY     73  47  39 NW8       30.15F
ELMIRA         SUNNY     76  52  43 NE7       30.13F
BINGHAMTON     MOSUNNY   72  51  47 NE6       30.16S
$$

NYZ026>034-041>043-102300-
NORTH


CITY           SKY/WX    TMP DP  RH WIND       PRES   REMARKS
WATERTOWN      SUNNY     69  52  54 SW9       30.16S
FORT DRUM      NOT AVBL
MASSENA        SUNNY     72  49  44 W7        30.15S
SARANAC LAKE   PTSUNNY   67  46  47 SW6       30.15S
PLATTSBURGH    MOSUNNY   75  47  36 VRB5      30.11S
$$

NYZ001>004-010>016-019>021-102300-
WEST


CITY           SKY/WX    TMP DP  RH WIND       PRES   REMARKS
NIAGARA FALLS  MOSUNNY   73  50  44 NE5       30.15F
BUFFALO        MOSUNNY   74  52  46 N8        30.15F
DUNKIRK        PTSUNNY   72  48  42 N10       30.15F
JAMESTOWN      SUNNY     72  55  56 N13       30.16S
WELLSVILLE     MOSUNNY   71  51  49 N5        30.18F
ROCHESTER      MOSUNNY   72  49  44 NE7       30.17F
PENN YAN       SUNNY     74  52  46 VRB6      30.16F
$$

             KEY
       WCI = WIND CHILL INDEX
       VSB = VISIBILITY
       HX  = HEAT INDEX
$$


USA.gov is the U.S. government's official web portal to all federal, state and local government web resources and services.